Location: Moscow
(55.7500°N, 37.5830°E)
Time: 16:59:53
(UTC+03:00)

Transit 2A - Pass Details

Date: 08 December 2021
Orbit: 591 x 967 km, 66.7° (Epoch: 17 January)

Event Time Altitude Azimuth Distance (km) Brightness Sun altitude
Rises 01:07:34 0° 233° (SW) 3,412 - -55.9°
Reaches altitude 10° 01:09:58 10° 236° (SW) 2,529 - -55.8°
Maximum altitude 01:15:53 68° 319° (NW) 999 - -55.5°
Drops below altitude 10° 01:22:15 10° 43° (NE) 2,704 - -55.1°
Exits shadow 01:23:51 - 45° (NE) 3,282 9.7 -55.0°
Sets 01:24:54 0° 46° (NE) 3,665 10.0 -54.9°
